Location: Hodgson Observatory
(42.9992°N, 96.7577°W)
Time: 17:34:42
(UTC-05:00)

Daily predictions for brighter satellites

Satellite Brightness Start Highest point End
(mag) Time Altitude Azimuth Time Altitude Azimuth Time Altitude Azimuth
Cosmos 1538 Rocket 4.3 21:38:32 10° NNW 21:43:53 78° WSW 21:49:14 10° SSE
Cosmos 1680 Rocket 4.3 21:39:16 10° N 21:44:12 39° ENE 21:49:06 10° SE
Cosmos 923 Rocket 4.3 21:42:52 10° NNW 21:48:00 54° ENE 21:53:05 10° SE
Cosmos 2058 4.5 21:46:45 10° SE 21:49:38 19° E 21:52:32 10° NE
CZ-4B R/B 4.4 21:48:20 10° NE 21:52:58 30° E 21:57:30 10° SSE
H-2A R/B 2.3 21:49:57 10° SSE 21:54:28 82° WSW 21:59:02 10° NNW
Cosmos 2219 4.1 21:50:27 10° SSE 21:55:21 30° ESE 22:00:16 10° NE
Cosmos 1328 Rocket 4.1 21:52:42 10° NNW 21:57:07 62° W 22:01:29 10° S
Meteor 2-20 4.5 21:51:07 10° S 21:57:13 72° E 22:03:20 10° NNE
Cosmos 1441 Rocket 3.3 21:54:22 10° SSW 21:58:09 79° W 22:01:55 10° N
Terra 3.9 21:57:09 10° E 21:59:38 14° ENE 22:02:05 10° NNE
Cosmos 1726 4.1 21:57:44 10° NNE 22:00:12 16° ENE 22:02:41 10° ESE
CZ-4 SHROUD 3.4 21:57:40 10° SSE 22:00:44 56° ENE 22:03:49 10° N
Cosmos 2322 3.9 21:57:00 10° NNW 22:02:43 65° ENE 22:08:14 11° SE
Cosmos 2237 Rocket 4.3 22:00:00 10° N 22:03:07 15° NE 22:06:14 10° ENE
Cosmos 2322 Rocket 3.2 22:01:32 10° NW 22:06:48 42° WSW 22:12:02 10° S
Cosmos 773 Rocket 4.1 22:02:02 10° NNW 22:07:14 82° WSW 22:12:28 10° SSE
USA 229 DEB 3.7 22:01:27 10° SSW 22:08:23 86° SE 22:15:26 10° NE
USA 229 3.7 22:01:33 10° SSW 22:08:30 85° ESE 22:15:32 10° NE
SL-16 R/B 3.4 22:11:39 10° NW 22:16:50 38° WSW 22:22:00 10° S
ATLAS CENTAUR R/B 3.9 22:14:34 10° WNW 22:17:05 15° WSW 22:19:28 10° SW
Cosmos 2360 Rocket 2.2 22:11:30 10° NNW 22:17:11 86° ENE 22:22:22 13° SSE
Cosmos 1908 3.5 22:13:19 10° NNW 22:17:12 70° W 22:21:05 10° S
Cosmos 1500 Rocket 4.4 22:14:43 10° SSW 22:18:58 52° W 22:23:19 10° N
NOSS 3-1 (A) 4.1 22:23:08 10° S 22:28:15 32° ESE 22:33:47 10° NE
Cosmos 1939 Rocket 4.3 22:25:03 10° SSW 22:28:39 33° W 22:32:12 10° NNW
Aureole 3 4.4 22:25:03 10° S 22:31:55 80° E 22:37:24 10° N
MetOp-B 4.3 22:26:49 10° S 22:32:10 78° WSW 22:37:33 10° NNW
Meteor 1-4 Rocket 4.0 22:29:09 10° NNE 22:32:21 25° ENE 22:34:10 17° ESE
Cosmos 1674 3.6 22:30:41 10° SSW 22:34:25 51° WNW 22:38:12 10° N
Delta 2 Rocket 4.1 22:31:47 10° SW 22:34:32 22° S 22:35:08 21° SSE
Cosmos 2242 Rocket 4.5 22:32:24 10° N 22:36:30 35° ENE 22:39:06 19° SE
SPOT 5 3.6 22:34:56 10° S 22:39:18 48° W 22:43:56 10° NNW
Envisat 4.1 22:35:03 10° SSW 22:39:47 40° W 22:44:35 10° NNW
Cosmos 1626 4.2 22:40:11 12° E 22:40:44 13° E 22:42:23 10° ENE
Cosmos 1300 2.7 22:39:52 10° N 22:43:42 70° E 22:46:03 22° SSE
SL-08 RB Rocket 3.7 22:40:45 19° SSE 22:43:52 67° ENE 22:48:20 10° N
Cosmos 2227 Rocket 3.6 22:42:28 17° ESE 22:44:09 19° E 22:48:03 10° NE
DELTA 2 DEB (DPAF) 4.5 22:42:51 21° SE 22:45:43 54° ENE 22:50:07 10° N
Cosmos 1437 3.6 22:42:40 10° SSW 22:45:51 50° WNW 22:49:05 10° N
Cosmos 2112 Rocket 4.2 22:43:59 10° NNW 22:49:11 67° WSW 22:53:12 17° S
USA 245 2.6 22:48:00 25° S 22:49:18 57° WSW 22:51:39 10° NNW
SL-23 DEB 3.9 22:45:03 10° WNW 22:49:55 64° SW 22:51:39 27° SE
ATLAS 2AS CENTAUR R/B 4.0 22:48:10 18° SE 22:51:03 23° ESE 22:56:52 10° ENE
Cosmos 2333 Rocket 3.3 22:46:09 10° N 22:51:20 34° NE 22:55:11 16° ESE
Cosmos 2298 Rocket 4.1 22:48:24 11° S 22:53:19 60° ESE 22:58:34 10° NNE
DELTA 2 R/B (1) 4.1 22:49:02 10° W 22:54:13 41° SSW 22:57:08 23° SE
SL-16 R/B 4.3 22:51:36 10° N 22:55:10 17° NE 22:58:43 10° E
CARTOSAT-1 4.1 22:54:18 24° SE 22:56:31 45° ENE 23:00:39 10° N
Sich 1 3.0 22:56:58 20° S 22:59:58 72° E 23:04:23 10° NNE
YAOGAN 6 3.9 22:57:57 14° SSW 23:00:44 36° W 23:04:07 10° NNW
Cosmos 2151 4.2 22:56:48 10° SSW 23:00:45 39° WNW 23:04:44 10° N
Cosmos 1633 Rocket 3.0 22:58:07 21° S 23:00:57 69° E 23:05:18 10° NNE
Cosmos 1937 Rocket 3.9 22:58:30 22° SSE 23:01:24 42° ESE 23:06:18 10° NNE
COSMOS 2428 2.7 22:57:30 10° NNW 23:03:13 84° WSW 23:06:47 24° SSE
Cosmos 2315 Rocket 4.4 22:58:50 10° NNW 23:04:55 59° W 23:10:26 13° S
Cosmos 1455 3.4 23:03:10 10° NNE 23:06:30 28° ENE 23:07:33 25° ESE
CZ-4C R/B 2.9 23:05:06 33° SSE 23:06:34 88° ENE 23:10:03 10° NNW
ATLAS 3B R/B 4.1 23:03:49 10° NNW 23:10:05 31° NE 23:15:59 10° E
Cosmos 2297 Rocket 3.4 23:10:25 21° ESE 23:11:29 23° E 23:15:48 10° NE
H-2A R/B 2.1 23:10:13 26° SSE 23:13:19 76° ENE 23:18:45 10° N
Cosmos 1805 Rocket 4.4 23:10:45 10° SSW 23:15:04 49° WNW 23:19:24 10° N
Cosmos 990 Rocket 4.5 23:13:39 29° SSE 23:15:34 40° ESE 23:20:21 10° NE
NOSS 3-1 (C) 3.4 23:09:48 10° SSW 23:15:41 88° SE 23:22:16 10° NE
Lacrosse 4 Rocket 3.9 23:13:57 10° N 23:16:32 15° NE 23:19:07 10° E
Cosmos 2219 Rocket 2.3 23:13:57 10° NNW 23:19:33 68° ENE 23:22:26 29° SE
Landsat 7 3.9 23:18:17 27° S 23:20:54 73° WSW 23:25:40 10° NNW
ARGOS 3.9 23:18:34 17° SSW 23:22:29 47° W 23:27:41 10° NNW
Cosmos 2058 4.4 23:22:37 10° SW 23:26:20 33° WNW 23:30:04 10° N
BREEZE-M DEB (TANK) 2.8 23:24:39 10° NW 23:26:39 44° NNE 23:27:42 29° E
Cosmos 292 Rocket 3.7 23:25:26 10° NNW 23:30:13 82° WSW 23:32:10 36° SSE
SAR-Lupe-2 3.5 23:31:37 50° S 23:32:29 86° WSW 23:36:05 10° NNW
Spot 4 3.8 23:31:37 35° SSE 23:33:40 83° ENE 23:38:33 10° NNW
Nadezhda 1 Rocket 3.9 23:27:57 10° N 23:34:04 82° E 23:37:15 30° SSE
Cosmos 1980 3.8 23:29:21 10° NNW 23:35:01 66° ENE 23:37:35 32° SE
Cosmos 1726 3.5 23:32:16 10° NNW 23:35:42 33° W 23:37:27 22° SW
Cosmos 1703 3.4 23:34:08 32° SSW 23:35:49 68° W 23:39:43 10° N
Terra 1.9 23:34:39 33° S 23:36:46 72° WSW 23:41:33 10° NNW
Cosmos 1271 Rocket 3.2 23:33:27 10° NNW 23:37:11 53° W 23:38:28 35° SSW
Cosmos 1346 3.1 23:39:16 66° ENE 23:39:16 66° ENE 23:42:05 10° NNE
Cosmos 2219 4.4 23:33:51 10° SW 23:39:19 43° WNW 23:44:47 10° NNE
Cosmos 1898 Rocket 3.9 23:36:31 12° SSW 23:41:16 62° WNW 23:46:27 10° NNE
COSMOS 2455 3.8 23:36:39 10° NNW 23:42:16 39° NE 23:45:49 20° ESE
Spot 2 4.4 23:38:09 10° NNE 23:43:19 87° ESE 23:45:45 31° SSW
Cosmos 1745 Rocket 4.1 23:42:06 21° SSW 23:46:24 73° W 23:52:36 10° N
Cosmos 1125 Rocket 4.3 23:46:29 32° ESE 23:47:18 33° E 23:52:02 10° NE
BREEZE-M TANK 4.0 23:26:51 10° WSW 23:47:32 83° SSE 23:51:47 10° ENE
Cosmos 2237 Rocket 2.2 23:42:27 10° NNW 23:48:11 77° ENE 23:50:31 37° SE
Cosmos 1470 Rocket 3.7 23:48:55 35° SSW 23:50:37 69° W 23:54:56 10° N
Cosmos 220 Rocket 4.2 23:48:52 28° SW 23:51:07 69° WNW 23:55:34 10° NNE
Cosmos 2082 3.7 23:49:09 33° S 23:51:45 67° ESE 23:57:27 10° NNE
Cosmos 1933 Rocket 3.7 23:50:13 35° SSW 23:52:02 71° W 23:56:30 10° N
IGS 5A 4.0 23:51:10 36° SSW 23:52:28 49° W 23:56:33 10° NNW
DMSP B5D2-2 4.3 23:47:41 10° N 23:52:53 68° WNW 23:56:03 24° SSW
Cosmos 1703 Rocket 4.2 23:49:39 10° N 23:53:47 40° ENE 23:54:35 37° ESE
Cosmos 2221 Rocket 4.3 23:50:15 10° N 23:54:35 40° ENE 23:55:32 36° ESE
Okean 1-7 4.3 23:51:18 10° NNE 23:54:54 26° ENE 23:55:37 25° E
